EW3206 Weather Reports


Display with metric or nautical units.
time (UTC)temp
F
wind
direction
speed
MPH
gust
MPH
rain 1hr
in
rain 24hr
in
rain mn
in
humidity
%
barometer
mb
20260506082309 55 88 9.0 17.0 0.00 0.00 0.00 60 6.6
20260506081309 54 64 8.0 14.0 0.00 0.00 0.00 65 6.4
20260506073309 53 45 1.0 12.0 0.00 0.00 0.00 73 6.5
20260506072309 52 61 4.0 11.0 0.00 0.00 0.00 73 6.4
20260506071309 52 64 3.0 10.0 0.00 0.00 0.00 74 6.4
20260506062309 51 19 1.0 9.0 0.00 0.00 0.00 76 6.2
20260506061309 51 15 2.0 11.0 0.00 0.00 0.00 77 6.0
20260506044309 49 13 0.0 4.0 0.00 0.00 0.00 80 6.0
20260506043309 49 5 0.0 1.0 0.00 0.00 0.00 81 6.0
20260506041310 49 5 0.0 1.0 0.00 0.00 0.00 82 6.0
20260506035309 49 22 0.0 5.0 0.00 0.00 0.00 82 6.1
20260506034313 49 63 0.0 4.0 0.00 0.00 0.00 83 6.2
20260506033309 48 336 0.0 9.0 0.00 0.00 0.00 83 6.3
20260506032314 48 22 4.0 9.0 0.00 0.00 0.00 83 6.3
20260506025311 48 64 0.0 6.0 0.00 0.00 0.00 84 6.5
20260506024313 48 67 1.0 11.0 0.00 0.00 0.00 84 6.6
20260506022309 48 57 0.0 6.0 0.00 0.00 0.00 84 6.7
20260506021309 48 78 1.0 9.0 0.00 0.00 0.00 84 6.8
20260506015309 48 78 1.0 7.0 0.00 0.00 0.00 84 6.8
20260506014309 48 26 1.0 10.0 0.00 0.00 0.00 83 6.8
20260506013310 48 76 3.0 9.0 0.00 0.00 0.00 82 6.9
20260506012309 49 53 1.0 12.0 0.00 0.00 0.00 81 7.0
20260506011312 49 89 4.0 12.0 0.00 0.00 0.00 79 7.1
20260506005309 50 67 7.0 14.0 0.00 0.00 0.00 77 7.2
20260506004309 50 78 4.0 11.0 0.00 0.00 0.00 77 7.3
20260506002309 50 163 2.0 7.0 0.00 0.00 0.00 76 7.3
20260506001309 50 17 0.0 10.0 0.00 0.00 0.00 76 7.3
20260505235309 50 27 2.0 7.0 0.00 0.00 0.00 76 7.4
20260505234310 50 30 1.0 11.0 0.00 0.00 0.00 76 7.5
20260505231309 50 80 2.0 12.0 0.00 0.00 0.00 74 7.6
20260505225309 51 46 2.0 13.0 0.00 0.00 0.00 74 7.7
20260505223309 51 10 1.0 9.0 0.00 0.00 0.00 73 7.8
20260505222309 51 38 1.0 12.0 0.00 0.00 0.00 73 7.8
20260505221309 51 346 5.0 11.0 0.00 0.00 0.00 72 8.0
20260505220309 51 355 3.0 10.0 0.00 0.00 0.00 72 8.1
20260505215309 51 47 0.0 10.0 0.00 0.00 0.00 72 8.1
20260505214309 51 30 0.0 9.0 0.00 0.00 0.00 72 8.2
20260505212309 51 58 1.0 9.0 0.00 0.00 0.00 71 8.3
20260505211309 51 82 1.0 6.0 0.00 0.00 0.00 70 8.2
20260505205309 52 348 0.0 9.0 0.00 0.00 0.00 70 8.2
20260505203309 52 5 0.0 3.0 0.00 0.00 0.00 73 8.2
20260505202309 52 71 0.0 10.0 0.00 0.00 0.00 72 8.1
20260505201310 52 61 0.0 9.0 0.00 0.00 0.00 72 8.2
20260505193309 53 42 0.0 6.0 0.00 0.00 0.00 69 8.0
20260505192311 53 74 1.0 9.0 0.00 0.00 0.00 68 8.0
20260505191309 53 65 2.0 13.0 0.00 0.00 0.00 68 7.9
20260505185309 53 40 3.0 9.0 0.00 0.00 0.00 68 8.0
20260505184309 53 39 2.0 12.0 0.00 0.00 0.00 67 7.8
20260505183309 54 52 5.0 15.0 0.00 0.00 0.00 67 7.9
20260505182309 54 65 4.0 10.0 0.00 0.00 0.00 67 7.8
20260505181310 54 62 4.0 14.0 0.00 0.00 0.00 65 7.8
20260505180309 55 74 6.0 14.0 0.00 0.00 0.00 65 7.7
20260505174309 56 35 7.0 16.0 0.00 0.00 0.00 64 7.8
20260505173309 56 43 7.0 14.0 0.00 0.00 0.00 63 7.7
20260505172309 57 61 6.0 13.0 0.00 0.00 0.00 62 7.7
20260505171309 58 85 2.0 12.0 0.00 0.00 0.00 62 7.8
20260505165309 58 71 2.0 14.0 0.00 0.00 0.00 60 7.8
20260505164309 58 60 2.0 11.0 0.00 0.00 0.00 62 7.9
20260505163310 59 42 5.0 14.0 0.00 0.00 0.00 59 8.0
20260505162309 59 90 5.0 15.0 0.00 0.00 0.00 60 8.0
20260505161309 59 84 3.0 11.0 0.00 0.00 0.00 61 7.9
20260505152309 58 105 1.0 11.0 0.00 0.00 0.00 64 8.2
20260505151310 57 74 3.0 10.0 0.00 0.00 0.00 66 8.3
20260505122309 53 84 0.0 10.0 0.00 0.00 0.00 76 9.1
20260505121309 53 75 3.0 12.0 0.00 0.00 0.00 75 9.1
20260505115309 53 94 5.0 11.0 0.00 0.00 0.00 76 9.4
20260505114309 53 74 0.0 11.0 0.00 0.00 0.00 77 9.4
20260505113309 52 69 3.0 14.0 0.00 0.00 0.00 76 9.3
20260505112309 52 57 2.0 9.0 0.00 0.00 0.00 77 9.4
20260505111310 52 55 2.0 7.0 0.00 0.00 0.00 77 9.4
20260505095310 53 76 3.0 11.0 0.00 0.00 0.00 77 9.8
20260505093310 52 343 0.0 8.0 0.00 0.00 0.00 78 10.1
20260505084310 50 54 3.0 13.0 0.00 0.00 0.00 80 9.7
20260505083310 50 50 2.0 9.0 0.00 0.00 0.00 81 9.8